GLOBALSTAR M064 [+]

Last updated on May 4, 2016, 7:38 a.m. UTC

1 26084U 00008D   16125.17686817 -.00000097  00000-0 -19441-3 0  9997
2 26084  52.0054  21.7019 0002138 122.2626 237.8414 11.88463314771141
UTC
Height (km)
Latitude
Longitude
Inclination
Orbital Period
UTC large
Height (km)
Speed (km/s)
/
Latitude / Longitude
Inclination (degrees)
Orbital Period (minutes)
Azimuth
Elevation
Range (km)
Doppler Factor
iOS Compass Heading
iOS Angle